Regional Weather Roundup
Issued by NWS

Home | Current Version | Previous Version | Graphics & Text | Print | Product List | Glossary On
Versions: 1 2 3 4 5 6 7 8 9 10 11 12 13 14 15 16 17 18 19 20 21 22 23 24 25 26 27 28 29 30 31 32 33 34 35 36 37 38 39 40 41 42 43 44 45 46 47 48 49 50
000
ASUS43 KTOP 152359
RWRKS

WEATHER ROUNDUP FOR KANSAS
NATIONAL WEATHER SERVICE GOODLAND KS
600 PM CST FRI DEC 15 2017

NOTE:  "FAIR" INDICATES FEW OR NO CLOUDS BELOW 12,000 FEET WITH NO
SIGNIFICANT WEATHER AND/OR OBSTRUCTIONS TO VISIBILITY.

KSZ001>006-013>018-027>032-041>047-160100-
NORTHWEST KANSAS

CITY           SKY/WX    TMP DP  RH WIND       PRES   REMARKS
GOODLAND       CLOUDY    50   2  14 SW14      29.87S
6HR MIN TEMP:  50; 6HR MAX TEMP:  59;

HAYS           CLEAR     44  16  32 SW10      29.91F
HILL CITY      CLEAR     47  15  27 SW8       29.87F
6HR MIN TEMP:  47; 6HR MAX TEMP:  59;

RUSSELL        CLEAR     43  17  35 SW12      29.90S
6HR MIN TEMP:  43; 6HR MAX TEMP:  57;

$$

KSZ061>065-074>080-084>089-160100-
SOUTHWEST KANSAS

CITY           SKY/WX    TMP DP  RH WIND       PRES   REMARKS
DODGE CITY     CLEAR     40  17  39 S8        29.95F
6HR MIN TEMP:  40; 6HR MAX TEMP:  56;

GARDEN CITY    CLEAR     41  12  30 S10       29.93F
6HR MIN TEMP:  41; 6HR MAX TEMP:  56;

GREAT BEND     CLEAR     47  19  33 S13       29.93F
LIBERAL        CLEAR     40  16  37 S12       29.98F WCI  33
$$

KSZ066>073-081>083-090>101-160100-
SOUTHEAST KANSAS

CITY           SKY/WX    TMP DP  RH WIND       PRES   REMARKS
CHANUTE        CLEAR     41  23  48 S13       30.04F
6HR MIN TEMP:  40; 6HR MAX TEMP:  49;

COFFEYVILLE    CLEAR     42  23  46 S9        30.10F
6HR MIN TEMP:  42; 6HR MAX TEMP:  50;

HUTCHINSON     CLEAR     45  23  42 S12       29.96F
6HR MIN TEMP:  45; 6HR MAX TEMP:  53;

MEDICINE LODGE   N/A     47  23  38 S9        30.00F
NEWTON         CLEAR     42  23  46 S13       29.99F
PARSONS        CLEAR     41  24  51 S6        30.09F
6HR MIN TEMP:  41; 6HR MAX TEMP:  49;

WICHITA INTL   CLEAR     44  25  47 S13       30.00F
6HR MIN TEMP:  44; 6HR MAX TEMP:  51;

WICHITA JABRA  CLEAR     44  25  47 S13       30.00F
6HR MIN TEMP:  43; 6HR MAX TEMP:  49;

WICHITA MCCONL CLEAR     41  23  47 SW12      30.01F
WINFIELD       CLEAR     40  26  57 S10       30.06F WCI  33
6HR MIN TEMP:  39; 6HR MAX TEMP:  50;

$$

KSZ007>012-019>026-033>040-048>060-102>105-160100-
NORTHEAST KANSAS

CITY           SKY/WX    TMP DP  RH WIND       PRES   REMARKS
CONCORDIA      CLEAR     47  21  35 S14       29.87F
6HR MIN TEMP:  42; 6HR MAX TEMP:  52;

EMPORIA        CLEAR     40  24  53 S10       30.00R WCI  33
6HR MIN TEMP:  40; 6HR MAX TEMP:  49;

LAWRENCE       CLEAR     40  23  50 S7        29.98F
6HR MIN TEMP:  40; 6HR MAX TEMP:  48;

MANHATTAN      CLEAR     45  23  42 SW10      29.95R
6HR MIN TEMP:  42; 6HR MAX TEMP:  52;

OLATHE IND     CLEAR     41  24  51 S10       30.00S
6HR MIN TEMP:  41; 6HR MAX TEMP:  45; 6HR PCP: TRACE;

OLATHE EXE     CLEAR     39  23  52 S6        29.99F
6HR MIN TEMP:  39; 6HR MAX TEMP:  44;

SALINA         CLEAR     46  22  38 S10       29.95R
6HR MIN TEMP:  46; 6HR MAX TEMP:  56;

TOPEKA BILLARD CLEAR     44  25  47 S6        29.97F
6HR MIN TEMP:  43; 6HR MAX TEMP:  49;

TOPEKA FORBES  CLEAR     41  24  51 S9        29.97S
6HR MIN TEMP:  41; 6HR MAX TEMP:  50;

$$




USA.gov is the U.S. government's official web portal to all federal, state and local government web resources and services.